Year,Month,Day,Hour,Minute,Value (Times are PST for windgust in km/hr)
2021,01,13,00,00,48.30
2021,01,13,00,01,40.20
2021,01,13,00,02,46.70
2021,01,13,00,03,57.90
2021,01,13,00,04,61.20
2021,01,13,00,05,56.30
2021,01,13,00,06,38.60
2021,01,13,00,07,40.20
2021,01,13,00,08,56.30
2021,01,13,00,09,51.50
2021,01,13,00,10,46.70
2021,01,13,00,11,59.50
2021,01,13,00,12,37.00
2021,01,13,00,13,41.80
2021,01,13,00,14,51.50
2021,01,13,00,15,46.70
2021,01,13,00,16,62.70
2021,01,13,00,17,62.70
2021,01,13,00,18,40.20
2021,01,13,00,19,51.50
2021,01,13,00,20,48.30
2021,01,13,00,21,62.70
2021,01,13,00,22,45.10
2021,01,13,00,23,43.50
2021,01,13,00,24,62.70
2021,01,13,00,25,51.50
2021,01,13,00,26,32.20
2021,01,13,00,27,49.90
2021,01,13,00,28,48.30
2021,01,13,00,29,59.50
2021,01,13,00,30,40.20
2021,01,13,00,31,62.70
2021,01,13,00,32,48.30
2021,01,13,00,33,53.10
2021,01,13,00,34,49.90
2021,01,13,00,35,66.00
2021,01,13,00,36,49.90
2021,01,13,00,37,54.70
2021,01,13,00,38,48.30
2021,01,13,00,39,40.20
2021,01,13,00,40,51.50
2021,01,13,00,41,54.70
2021,01,13,00,42,41.80
2021,01,13,00,43,41.80
2021,01,13,00,44,37.00
2021,01,13,00,45,41.80
2021,01,13,00,46,43.50
2021,01,13,00,47,37.00
2021,01,13,00,48,49.90
2021,01,13,00,49,53.10
2021,01,13,00,50,46.70
2021,01,13,00,51,46.70
2021,01,13,00,52,54.70
2021,01,13,00,53,48.30
2021,01,13,00,54,46.70
2021,01,13,00,55,40.20
2021,01,13,00,56,46.70
2021,01,13,00,57,53.10
2021,01,13,00,58,54.70
2021,01,13,00,59,53.10
2021,01,13,01,00,40.20
2021,01,13,01,01,40.20
2021,01,13,01,02,27.40
2021,01,13,01,03,46.70
2021,01,13,01,04,46.70
2021,01,13,01,05,53.10
2021,01,13,01,06,41.80
2021,01,13,01,07,53.10
2021,01,13,01,08,41.80
2021,01,13,01,09,56.30
2021,01,13,01,10,51.50
2021,01,13,01,11,38.60
2021,01,13,01,12,30.60
2021,01,13,01,13,46.70
2021,01,13,01,14,38.60
2021,01,13,01,15,29.00
2021,01,13,01,16,35.40
2021,01,13,01,17,24.20
2021,01,13,01,18,32.20
2021,01,13,01,19,57.90
2021,01,13,01,20,48.30
2021,01,13,01,21,30.60
2021,01,13,01,22,41.80
2021,01,13,01,23,54.70
2021,01,13,01,24,54.70
2021,01,13,01,25,57.90
2021,01,13,01,26,32.20
2021,01,13,01,27,57.90
2021,01,13,01,28,64.40
2021,01,13,01,29,38.60
2021,01,13,01,30,41.80
2021,01,13,01,31,37.00
2021,01,13,01,32,35.40
2021,01,13,01,33,48.30
2021,01,13,01,34,37.00
2021,01,13,01,35,24.20
2021,01,13,01,36,37.00
2021,01,13,01,37,37.00
2021,01,13,01,38,37.00
2021,01,13,01,39,37.00
2021,01,13,01,40,33.80
2021,01,13,01,41,38.60
2021,01,13,01,42,45.10
2021,01,13,01,43,37.00
2021,01,13,01,44,30.60
2021,01,13,01,45,37.00
2021,01,13,01,46,32.20
2021,01,13,01,47,37.00
2021,01,13,01,48,37.00
2021,01,13,01,49,33.80
2021,01,13,01,50,35.40
2021,01,13,01,51,27.40
2021,01,13,01,52,53.10
2021,01,13,01,53,24.20
2021,01,13,01,54,25.70
2021,01,13,01,55,37.00
2021,01,13,01,56,38.60
2021,01,13,01,57,46.70
2021,01,13,01,58,43.50
2021,01,13,01,59,45.10
2021,01,13,02,00,35.40
2021,01,13,02,01,56.30
2021,01,13,02,02,43.50
2021,01,13,02,03,49.90
2021,01,13,02,04,54.70
2021,01,13,02,05,41.80
2021,01,13,02,06,40.20
2021,01,13,02,07,57.90
2021,01,13,02,08,38.60
2021,01,13,02,09,43.50
2021,01,13,02,10,54.70
2021,01,13,02,11,33.80
2021,01,13,02,12,41.80
2021,01,13,02,13,38.60
2021,01,13,02,14,57.90
2021,01,13,02,15,41.80
2021,01,13,02,16,40.20
2021,01,13,02,17,37.00
2021,01,13,02,18,64.40
2021,01,13,02,19,41.80
2021,01,13,02,20,37.00
2021,01,13,02,21,35.40
2021,01,13,02,22,40.20
2021,01,13,02,23,41.80
2021,01,13,02,24,40.20
2021,01,13,02,25,29.00
2021,01,13,02,26,29.00
2021,01,13,02,27,41.80
2021,01,13,02,28,41.80
2021,01,13,02,29,22.50
2021,01,13,02,30,35.40
2021,01,13,02,31,30.60
2021,01,13,02,32,25.70
2021,01,13,02,33,33.80
2021,01,13,02,34,35.40
2021,01,13,02,35,45.10
2021,01,13,02,36,48.30
2021,01,13,02,37,43.50
2021,01,13,02,38,49.90
2021,01,13,02,39,43.50
2021,01,13,02,40,30.60
2021,01,13,02,41,33.80
2021,01,13,02,42,25.70
2021,01,13,02,43,48.30
2021,01,13,02,44,45.10
2021,01,13,02,45,32.20
2021,01,13,02,46,37.00
2021,01,13,02,47,33.80
2021,01,13,02,48,49.90
2021,01,13,02,49,33.80
2021,01,13,02,50,35.40
2021,01,13,02,51,17.70
2021,01,13,02,52,24.20
2021,01,13,02,53,25.70
2021,01,13,02,54,40.20
2021,01,13,02,55,40.20
2021,01,13,02,56,19.30
2021,01,13,02,57,45.10
2021,01,13,02,58,45.10
2021,01,13,02,59,35.40
2021,01,13,03,00,32.20
2021,01,13,03,01,40.20
2021,01,13,03,02,43.50
2021,01,13,03,03,38.60
2021,01,13,03,04,22.50
2021,01,13,03,05,40.20
2021,01,13,03,06,37.00
2021,01,13,03,07,46.70
2021,01,13,03,08,30.60
2021,01,13,03,09,45.10
2021,01,13,03,10,33.80
2021,01,13,03,11,43.50
2021,01,13,03,12,40.20
2021,01,13,03,13,35.40
2021,01,13,03,14,32.20
2021,01,13,03,15,40.20
2021,01,13,03,16,40.20
2021,01,13,03,17,38.60
2021,01,13,03,18,32.20
2021,01,13,03,19,29.00
2021,01,13,03,20,41.80
2021,01,13,03,21,56.30
2021,01,13,03,22,41.80
2021,01,13,03,23,32.20
2021,01,13,03,24,41.80
2021,01,13,03,25,40.20
2021,01,13,03,26,25.70
2021,01,13,03,27,32.20
2021,01,13,03,28,29.00
2021,01,13,03,29,22.50
2021,01,13,03,30,35.40
2021,01,13,03,31,40.20
2021,01,13,03,32,38.60
2021,01,13,03,33,41.80
2021,01,13,03,34,33.80
2021,01,13,03,35,35.40
2021,01,13,03,36,51.50
2021,01,13,03,37,40.20
2021,01,13,03,38,51.50
2021,01,13,03,39,45.10
2021,01,13,03,40,33.80
2021,01,13,03,41,43.50
2021,01,13,03,42,41.80
2021,01,13,03,43,41.80
2021,01,13,03,44,32.20
2021,01,13,03,45,20.90
2021,01,13,03,46,48.30
2021,01,13,03,47,40.20
2021,01,13,03,48,33.80
2021,01,13,03,49,35.40
2021,01,13,03,50,27.40
2021,01,13,03,51,29.00
2021,01,13,03,52,30.60
2021,01,13,03,53,27.40
2021,01,13,03,54,37.00
2021,01,13,03,55,40.20
2021,01,13,03,56,41.80
2021,01,13,03,57,37.00
2021,01,13,03,58,41.80
2021,01,13,03,59,32.20
2021,01,13,04,00,35.40
2021,01,13,04,01,43.50
2021,01,13,04,02,29.00
2021,01,13,04,03,29.00
2021,01,13,04,04,37.00
2021,01,13,04,05,35.40
2021,01,13,04,06,32.20
2021,01,13,04,07,19.30
2021,01,13,04,08,38.60
2021,01,13,04,09,41.80
2021,01,13,04,10,33.80
2021,01,13,04,11,19.30
2021,01,13,04,12,22.50
2021,01,13,04,13,25.70
2021,01,13,04,14,24.20
2021,01,13,04,15,27.40
2021,01,13,04,16,24.20
2021,01,13,04,17,24.20
2021,01,13,04,18,22.50
2021,01,13,04,19,24.20
2021,01,13,04,20,33.80
2021,01,13,04,21,27.40
2021,01,13,04,22,41.80
2021,01,13,04,23,30.60
2021,01,13,04,24,59.50
2021,01,13,04,25,30.60
2021,01,13,04,26,25.70
2021,01,13,04,27,35.40
2021,01,13,04,28,40.20
2021,01,13,04,29,30.60
2021,01,13,04,30,30.60
2021,01,13,04,31,37.00
2021,01,13,04,32,29.00
2021,01,13,04,33,38.60
2021,01,13,04,34,37.00
2021,01,13,04,35,29.00
2021,01,13,04,36,17.70
2021,01,13,04,37,30.60
2021,01,13,04,38,33.80
2021,01,13,04,39,27.40
2021,01,13,04,40,35.40
2021,01,13,04,41,30.60
2021,01,13,04,42,27.40
2021,01,13,04,43,38.60
2021,01,13,04,44,22.50
2021,01,13,04,45,20.90
2021,01,13,04,46,30.60
2021,01,13,04,47,27.40
2021,01,13,04,48,20.90
2021,01,13,04,49,41.80
2021,01,13,04,50,40.20
2021,01,13,04,51,40.20
2021,01,13,04,52,33.80
2021,01,13,04,53,30.60
2021,01,13,04,54,38.60
2021,01,13,04,55,45.10
2021,01,13,04,56,32.20
2021,01,13,04,57,32.20
2021,01,13,04,58,56.30
2021,01,13,04,59,38.60
2021,01,13,05,00,35.40
2021,01,13,05,01,32.20
2021,01,13,05,02,46.70
2021,01,13,05,03,37.00
2021,01,13,05,04,25.70
2021,01,13,05,05,38.60
2021,01,13,05,06,29.00
2021,01,13,05,07,40.20
2021,01,13,05,08,25.70
2021,01,13,05,09,22.50
2021,01,13,05,10,33.80
2021,01,13,05,11,46.70
2021,01,13,05,12,51.50
2021,01,13,05,13,43.50
2021,01,13,05,14,32.20
2021,01,13,05,15,25.70
2021,01,13,05,16,35.40
2021,01,13,05,17,37.00
2021,01,13,05,18,30.60
2021,01,13,05,19,35.40
2021,01,13,05,20,27.40
2021,01,13,05,21,32.20
2021,01,13,05,22,43.50
2021,01,13,05,23,43.50
2021,01,13,05,24,32.20
2021,01,13,05,25,41.80
2021,01,13,05,26,41.80
2021,01,13,05,27,45.10
2021,01,13,05,28,30.60
2021,01,13,05,29,33.80
2021,01,13,05,30,27.40
2021,01,13,05,31,37.00
2021,01,13,05,32,33.80
2021,01,13,05,33,46.70
2021,01,13,05,34,33.80
2021,01,13,05,35,24.20
2021,01,13,05,36,35.40
2021,01,13,05,37,19.30
2021,01,13,05,38,32.20
2021,01,13,05,39,22.50
2021,01,13,05,40,19.30
2021,01,13,05,41,37.00
2021,01,13,05,42,33.80
2021,01,13,05,43,27.40
2021,01,13,05,44,25.70
2021,01,13,05,45,33.80
2021,01,13,05,46,30.60
2021,01,13,05,47,25.70
2021,01,13,05,48,30.60
2021,01,13,05,49,35.40
2021,01,13,05,50,25.70
2021,01,13,05,51,22.50
2021,01,13,05,52,22.50
2021,01,13,05,53,24.20
2021,01,13,05,54,29.00
2021,01,13,05,55,33.80
2021,01,13,05,56,25.70
2021,01,13,05,57,29.00
2021,01,13,05,58,20.90
2021,01,13,05,59,25.70
2021,01,13,06,00,19.30
2021,01,13,06,01,20.90
2021,01,13,06,02,17.70
2021,01,13,06,03,22.50
2021,01,13,06,04,22.50
2021,01,13,06,05,22.50
2021,01,13,06,06,16.10
2021,01,13,06,07,22.50
2021,01,13,06,08,14.50
2021,01,13,06,09,22.50
2021,01,13,06,10,17.70
2021,01,13,06,11,17.70
2021,01,13,06,12,16.10
2021,01,13,06,13,16.10
2021,01,13,06,14,17.70
2021,01,13,06,15,20.90
2021,01,13,06,16,11.30
2021,01,13,06,17,12.90
2021,01,13,06,18,17.70
2021,01,13,06,19,16.10
2021,01,13,06,20,11.30
2021,01,13,06,21,19.30
2021,01,13,06,22,9.60
2021,01,13,06,23,6.40
2021,01,13,06,24,17.70
2021,01,13,06,25,16.10
2021,01,13,06,26,9.60
2021,01,13,06,27,11.30
2021,01,13,06,28,17.70
2021,01,13,06,29,19.30
2021,01,13,06,30,9.60
2021,01,13,06,31,9.60
2021,01,13,06,32,6.40
2021,01,13,06,33,14.50
2021,01,13,06,34,14.50
2021,01,13,06,35,9.60
2021,01,13,06,36,11.30
2021,01,13,06,37,20.90
2021,01,13,06,38,19.30
2021,01,13,06,39,14.50
2021,01,13,06,40,9.60
2021,01,13,06,41,6.40
2021,01,13,06,42,20.90
2021,01,13,06,43,16.10
2021,01,13,06,44,14.50
2021,01,13,06,45,19.30
2021,01,13,06,46,16.10
2021,01,13,06,47,19.30
2021,01,13,06,48,17.70
2021,01,13,06,49,14.50
2021,01,13,06,50,19.30
2021,01,13,06,51,16.10
2021,01,13,06,52,11.30
2021,01,13,06,53,14.50
2021,01,13,06,54,9.60
2021,01,13,06,55,12.90
2021,01,13,06,56,16.10
2021,01,13,06,57,11.30
2021,01,13,06,58,8.10
2021,01,13,06,59,20.90
2021,01,13,07,00,16.10
2021,01,13,07,01,11.30
2021,01,13,07,02,8.10
2021,01,13,07,03,16.10
2021,01,13,07,04,17.70
2021,01,13,07,05,16.10
2021,01,13,07,06,22.50
2021,01,13,07,07,19.30
2021,01,13,07,08,16.10
2021,01,13,07,09,19.30
2021,01,13,07,10,9.60
2021,01,13,07,11,19.30
2021,01,13,07,12,19.30
2021,01,13,07,13,9.60
2021,01,13,07,14,24.20
2021,01,13,07,15,19.30
2021,01,13,07,16,16.10
2021,01,13,07,17,17.70
2021,01,13,07,18,16.10
2021,01,13,07,19,16.10
2021,01,13,07,20,17.70
2021,01,13,07,21,17.70
2021,01,13,07,22,16.10
2021,01,13,07,23,27.40
2021,01,13,07,24,17.70
2021,01,13,07,25,30.60
2021,01,13,07,26,16.10
2021,01,13,07,27,19.30
2021,01,13,07,28,20.90
2021,01,13,07,29,19.30
2021,01,13,07,30,22.50
2021,01,13,07,31,20.90
2021,01,13,07,32,20.90
2021,01,13,07,33,17.70
2021,01,13,07,34,14.50
2021,01,13,07,35,14.50
2021,01,13,07,36,11.30
2021,01,13,07,37,16.10
2021,01,13,07,38,19.30
2021,01,13,07,39,24.20
2021,01,13,07,40,17.70
2021,01,13,07,41,25.70
2021,01,13,07,42,17.70
2021,01,13,07,43,16.10
2021,01,13,07,44,19.30
2021,01,13,07,45,20.90
2021,01,13,07,46,29.00
2021,01,13,07,47,25.70
2021,01,13,07,48,14.50
2021,01,13,07,49,12.90
2021,01,13,07,50,22.50
2021,01,13,07,51,27.40
2021,01,13,07,52,22.50
2021,01,13,07,53,20.90
2021,01,13,07,54,33.80
2021,01,13,07,55,24.20
2021,01,13,07,56,17.70
2021,01,13,07,57,16.10
2021,01,13,07,58,32.20
2021,01,13,07,59,24.20
2021,01,13,08,00,20.90
2021,01,13,08,01,11.30
2021,01,13,08,02,14.50
2021,01,13,08,03,12.90
2021,01,13,08,04,11.30
2021,01,13,08,05,14.50
2021,01,13,08,06,19.30
2021,01,13,08,07,22.50
2021,01,13,08,08,24.20
2021,01,13,08,09,17.70
2021,01,13,08,10,16.10
2021,01,13,08,11,17.70
2021,01,13,08,12,19.30
2021,01,13,08,13,22.50
2021,01,13,08,14,25.70
2021,01,13,08,15,17.70
2021,01,13,08,16,16.10
2021,01,13,08,17,22.50
2021,01,13,08,18,19.30
2021,01,13,08,19,24.20
2021,01,13,08,20,16.10
2021,01,13,08,21,11.30
2021,01,13,08,22,24.20
2021,01,13,08,23,20.90
2021,01,13,08,24,14.50
2021,01,13,08,25,25.70
2021,01,13,08,26,22.50
2021,01,13,08,27,11.30
2021,01,13,08,28,24.20
2021,01,13,08,29,24.20
2021,01,13,08,30,24.20
2021,01,13,08,31,24.20
2021,01,13,08,32,20.90
2021,01,13,08,33,22.50
2021,01,13,08,34,19.30
2021,01,13,08,35,19.30
2021,01,13,08,36,20.90
2021,01,13,08,37,14.50
2021,01,13,08,38,27.40
2021,01,13,08,39,11.30
2021,01,13,08,40,14.50
2021,01,13,08,41,19.30
2021,01,13,08,42,14.50
2021,01,13,08,43,19.30
2021,01,13,08,44,6.40
2021,01,13,08,45,11.30
2021,01,13,08,46,22.50
2021,01,13,08,47,25.70
2021,01,13,08,48,22.50
2021,01,13,08,49,22.50
2021,01,13,08,50,17.70
2021,01,13,08,51,19.30
2021,01,13,08,52,17.70
2021,01,13,08,53,20.90
2021,01,13,08,54,16.10
2021,01,13,08,55,11.30
2021,01,13,08,56,17.70
2021,01,13,08,57,20.90
2021,01,13,08,58,24.20
2021,01,13,08,59,22.50
2021,01,13,09,00,17.70
2021,01,13,09,01,19.30
2021,01,13,09,02,16.10
2021,01,13,09,03,9.60
2021,01,13,09,04,8.10
2021,01,13,09,05,22.50
2021,01,13,09,06,27.40
2021,01,13,09,07,14.50
2021,01,13,09,08,16.10
2021,01,13,09,09,6.40
2021,01,13,09,10,6.40
2021,01,13,09,11,6.40
2021,01,13,09,12,24.20
2021,01,13,09,13,20.90
2021,01,13,09,14,17.70
2021,01,13,09,15,11.30
2021,01,13,09,16,14.50
2021,01,13,09,17,22.50
2021,01,13,09,18,17.70
2021,01,13,09,19,22.50
2021,01,13,09,20,14.50
2021,01,13,09,21,16.10
2021,01,13,09,22,17.70
2021,01,13,09,23,17.70
2021,01,13,09,24,16.10
2021,01,13,09,25,19.30
2021,01,13,09,26,20.90
2021,01,13,09,27,11.30
2021,01,13,09,28,8.10
2021,01,13,09,29,17.70
2021,01,13,09,30,19.30
2021,01,13,09,31,8.10
2021,01,13,09,32,8.10
2021,01,13,09,33,8.10
2021,01,13,09,34,11.30
2021,01,13,09,35,17.70
2021,01,13,09,36,11.30
2021,01,13,09,37,11.30
2021,01,13,09,38,29.00
2021,01,13,09,39,16.10
2021,01,13,09,40,8.10
2021,01,13,09,41,8.10
2021,01,13,09,42,14.50
2021,01,13,09,43,20.90
2021,01,13,09,44,14.50
2021,01,13,09,45,14.50
2021,01,13,09,46,17.70
2021,01,13,09,47,25.70
2021,01,13,09,48,20.90
2021,01,13,09,49,30.60
2021,01,13,09,50,22.50
2021,01,13,09,51,22.50
2021,01,13,09,52,29.00
2021,01,13,09,53,17.70
2021,01,13,09,54,20.90
2021,01,13,09,55,16.10
2021,01,13,09,56,19.30
2021,01,13,09,57,19.30
2021,01,13,09,58,22.50
2021,01,13,09,59,19.30
2021,01,13,10,00,16.10
2021,01,13,10,01,19.30
2021,01,13,10,02,16.10
2021,01,13,10,03,8.10
2021,01,13,10,04,6.40
2021,01,13,10,05,6.40
2021,01,13,10,06,6.40
2021,01,13,10,07,16.10
2021,01,13,10,08,17.70
2021,01,13,10,09,19.30
2021,01,13,10,10,8.10
2021,01,13,10,11,20.90
2021,01,13,10,12,11.30
2021,01,13,10,13,14.50
2021,01,13,10,14,11.30
2021,01,13,10,15,9.60
2021,01,13,10,16,9.60
2021,01,13,10,17,11.30
2021,01,13,10,18,19.30
2021,01,13,10,19,20.90
2021,01,13,10,20,19.30
2021,01,13,10,21,14.50
2021,01,13,10,22,16.10
2021,01,13,10,23,19.30
2021,01,13,10,24,19.30
2021,01,13,10,25,17.70
2021,01,13,10,26,16.10
2021,01,13,10,27,20.90
2021,01,13,10,28,17.70
2021,01,13,10,29,14.50
2021,01,13,10,30,14.50
2021,01,13,10,31,14.50
2021,01,13,10,32,8.10
2021,01,13,10,33,11.30
2021,01,13,10,34,9.60
2021,01,13,10,35,12.90
2021,01,13,10,36,12.90
2021,01,13,10,37,11.30
2021,01,13,10,38,12.90
2021,01,13,10,39,8.10
2021,01,13,10,40,8.10
2021,01,13,10,41,11.30
2021,01,13,10,42,9.60
2021,01,13,10,43,16.10
2021,01,13,10,44,8.10
2021,01,13,10,45,9.60
2021,01,13,10,46,11.30
2021,01,13,10,47,17.70
2021,01,13,10,48,17.70
2021,01,13,10,49,9.60
2021,01,13,10,50,11.30
2021,01,13,10,51,14.50
2021,01,13,10,52,14.50
2021,01,13,10,53,17.70
2021,01,13,10,54,12.90
2021,01,13,10,55,11.30
2021,01,13,10,56,9.60
2021,01,13,10,57,29.00
2021,01,13,10,58,22.50
2021,01,13,10,59,29.00
2021,01,13,11,00,29.00
2021,01,13,11,01,30.60
2021,01,13,11,02,27.40
2021,01,13,11,03,19.30
2021,01,13,11,04,24.20
2021,01,13,11,05,19.30
2021,01,13,11,06,14.50
2021,01,13,11,07,27.40
2021,01,13,11,08,19.30
2021,01,13,11,09,24.20
2021,01,13,11,10,25.70
2021,01,13,11,11,27.40
2021,01,13,11,12,27.40
2021,01,13,11,13,29.00
2021,01,13,11,14,27.40
2021,01,13,11,15,22.50
2021,01,13,11,16,19.30
2021,01,13,11,17,20.90
2021,01,13,11,18,16.10
2021,01,13,11,19,11.30
2021,01,13,11,20,11.30
2021,01,13,11,21,16.10
2021,01,13,11,22,6.40
2021,01,13,11,23,9.60
2021,01,13,11,24,11.30
2021,01,13,11,25,19.30
2021,01,13,11,26,11.30
2021,01,13,11,27,17.70
2021,01,13,11,28,17.70
2021,01,13,11,29,11.30
2021,01,13,11,30,11.30
2021,01,13,11,31,11.30
2021,01,13,11,32,6.40
2021,01,13,11,33,14.50
2021,01,13,11,34,16.10
2021,01,13,11,35,16.10
2021,01,13,11,36,14.50
2021,01,13,11,37,11.30
2021,01,13,11,38,17.70
2021,01,13,11,39,9.60
2021,01,13,11,40,16.10
2021,01,13,11,41,8.10
2021,01,13,11,42,17.70
2021,01,13,11,43,17.70
2021,01,13,11,44,16.10
2021,01,13,11,45,14.50
2021,01,13,11,46,9.60
2021,01,13,11,47,6.40
2021,01,13,11,48,11.30
2021,01,13,11,49,19.30
2021,01,13,11,50,11.30
2021,01,13,11,51,14.50
2021,01,13,11,52,16.10
2021,01,13,11,53,17.70
2021,01,13,11,54,17.70
2021,01,13,11,55,8.10
2021,01,13,11,56,11.30
2021,01,13,11,57,11.30
2021,01,13,11,58,6.40
2021,01,13,11,59,19.30
2021,01,13,12,00,16.10
2021,01,13,12,01,14.50
2021,01,13,12,02,11.30
2021,01,13,12,03,9.60
2021,01,13,12,04,20.90
2021,01,13,12,05,11.30
2021,01,13,12,06,8.10
2021,01,13,12,07,9.60
2021,01,13,12,08,8.10
2021,01,13,12,09,9.60
2021,01,13,12,10,12.90
2021,01,13,12,11,11.30
2021,01,13,12,12,11.30
2021,01,13,12,13,9.60
2021,01,13,12,14,11.30
2021,01,13,12,15,12.90
2021,01,13,12,16,11.30
2021,01,13,12,17,19.30
2021,01,13,12,18,19.30
2021,01,13,12,19,16.10
2021,01,13,12,20,12.90
2021,01,13,12,21,11.30
2021,01,13,12,22,17.70
2021,01,13,12,23,19.30
2021,01,13,12,24,19.30
2021,01,13,12,25,29.00
2021,01,13,12,26,9.60
2021,01,13,12,27,16.10
2021,01,13,12,28,19.30
2021,01,13,12,29,16.10
2021,01,13,12,30,22.50
2021,01,13,12,31,16.10
2021,01,13,12,32,14.50
2021,01,13,12,33,9.60
2021,01,13,12,34,12.90
2021,01,13,12,35,19.30
2021,01,13,12,36,14.50
2021,01,13,12,37,16.10
2021,01,13,12,38,16.10
2021,01,13,12,39,17.70
2021,01,13,12,40,19.30
2021,01,13,12,41,16.10
2021,01,13,12,42,11.30
2021,01,13,12,43,27.40
2021,01,13,12,44,22.50
2021,01,13,12,45,17.70
2021,01,13,12,46,16.10
2021,01,13,12,47,9.60
2021,01,13,12,48,16.10
2021,01,13,12,49,16.10
2021,01,13,12,50,22.50
2021,01,13,12,51,24.20
2021,01,13,12,52,16.10
2021,01,13,12,53,20.90
2021,01,13,12,54,19.30
2021,01,13,12,55,16.10
2021,01,13,12,56,16.10
2021,01,13,12,57,24.20
2021,01,13,12,58,24.20
2021,01,13,12,59,25.70
2021,01,13,13,00,27.40
2021,01,13,13,01,20.90
2021,01,13,13,02,25.70
2021,01,13,13,03,25.70
2021,01,13,13,04,25.70
2021,01,13,13,05,19.30
2021,01,13,13,06,20.90
2021,01,13,13,07,17.70
2021,01,13,13,08,16.10
2021,01,13,13,09,25.70
2021,01,13,13,10,27.40
2021,01,13,13,11,25.70
2021,01,13,13,12,27.40
2021,01,13,13,13,24.20
2021,01,13,13,14,25.70
2021,01,13,13,15,22.50
2021,01,13,13,16,27.40
2021,01,13,13,17,24.20
2021,01,13,13,18,14.50
2021,01,13,13,19,12.90
2021,01,13,13,20,24.20
2021,01,13,13,21,19.30
2021,01,13,13,22,19.30
2021,01,13,13,23,20.90
2021,01,13,13,24,24.20
2021,01,13,13,25,24.20
2021,01,13,13,26,19.30
2021,01,13,13,27,29.00
2021,01,13,13,28,27.40
2021,01,13,13,29,30.60
2021,01,13,13,30,24.20
2021,01,13,13,31,30.60
2021,01,13,13,32,22.50
2021,01,13,13,33,22.50
2021,01,13,13,34,30.60
2021,01,13,13,35,20.90
2021,01,13,13,36,22.50
2021,01,13,13,37,25.70
2021,01,13,13,38,20.90
2021,01,13,13,39,25.70
2021,01,13,13,40,17.70
2021,01,13,13,41,22.50
2021,01,13,13,42,24.20
2021,01,13,13,43,20.90
2021,01,13,13,44,25.70
2021,01,13,13,45,24.20
2021,01,13,13,46,24.20
2021,01,13,13,47,22.50
2021,01,13,13,48,22.50
2021,01,13,13,49,25.70
2021,01,13,13,50,29.00
2021,01,13,13,51,22.50
2021,01,13,13,52,20.90
2021,01,13,13,53,24.20
2021,01,13,13,54,9.60
2021,01,13,13,55,17.70
2021,01,13,13,56,16.10
2021,01,13,13,57,17.70
2021,01,13,13,58,9.60
2021,01,13,13,59,16.10
2021,01,13,14,00,16.10
2021,01,13,14,01,22.50
2021,01,13,14,02,16.10
2021,01,13,14,03,19.30
2021,01,13,14,04,14.50
2021,01,13,14,05,19.30
2021,01,13,14,06,27.40
2021,01,13,14,07,20.90
2021,01,13,14,08,16.10
2021,01,13,14,09,17.70
2021,01,13,14,10,20.90
2021,01,13,14,11,17.70
2021,01,13,14,12,17.70
2021,01,13,14,13,16.10
2021,01,13,14,14,17.70
2021,01,13,14,15,19.30
2021,01,13,14,16,14.50
2021,01,13,14,17,19.30
2021,01,13,14,18,19.30
2021,01,13,14,19,17.70
2021,01,13,14,20,24.20
2021,01,13,14,21,19.30
2021,01,13,14,22,22.50
2021,01,13,14,23,19.30
2021,01,13,14,24,20.90
2021,01,13,14,25,19.30
2021,01,13,14,26,20.90
2021,01,13,14,27,19.30
2021,01,13,14,28,14.50
2021,01,13,14,29,11.30
2021,01,13,14,30,16.10
2021,01,13,14,31,14.50
2021,01,13,14,32,20.90
2021,01,13,14,33,19.30
2021,01,13,14,34,8.10
2021,01,13,14,35,14.50
2021,01,13,14,36,11.30
2021,01,13,14,37,16.10
2021,01,13,14,38,16.10
2021,01,13,14,39,27.40
2021,01,13,14,40,24.20
2021,01,13,14,41,22.50
2021,01,13,14,42,17.70
2021,01,13,14,43,22.50
2021,01,13,14,44,25.70
2021,01,13,14,45,17.70
2021,01,13,14,46,17.70
2021,01,13,14,47,20.90
2021,01,13,14,48,22.50
2021,01,13,14,49,22.50
2021,01,13,14,50,19.30
2021,01,13,14,51,17.70
2021,01,13,14,52,12.90
2021,01,13,14,53,25.70
2021,01,13,14,54,20.90
2021,01,13,14,55,16.10
2021,01,13,14,56,12.90
2021,01,13,14,57,17.70
2021,01,13,14,58,25.70
2021,01,13,14,59,19.30
2021,01,13,15,00,19.30
2021,01,13,15,01,19.30
2021,01,13,15,02,17.70
2021,01,13,15,03,19.30
2021,01,13,15,04,14.50
2021,01,13,15,05,14.50
2021,01,13,15,06,22.50
2021,01,13,15,07,20.90
2021,01,13,15,08,16.10
2021,01,13,15,09,16.10
2021,01,13,15,10,14.50
2021,01,13,15,11,17.70
2021,01,13,15,12,14.50
2021,01,13,15,13,17.70
2021,01,13,15,14,20.90
2021,01,13,15,15,19.30
2021,01,13,15,16,14.50
2021,01,13,15,17,14.50
2021,01,13,15,18,16.10
2021,01,13,15,19,14.50
2021,01,13,15,20,16.10
2021,01,13,15,21,9.60
2021,01,13,15,22,11.30
2021,01,13,15,23,9.60
2021,01,13,15,24,6.40
2021,01,13,15,25,8.10
2021,01,13,15,26,6.40
2021,01,13,15,27,6.40
2021,01,13,15,28,11.30
2021,01,13,15,29,9.60
2021,01,13,15,30,6.40
2021,01,13,15,31,11.30
2021,01,13,15,32,16.10
2021,01,13,15,33,16.10
2021,01,13,15,34,9.60
2021,01,13,15,35,6.40
2021,01,13,15,36,6.40
2021,01,13,15,37,6.40
2021,01,13,15,38,9.60
2021,01,13,15,39,9.60
2021,01,13,15,40,4.80
2021,01,13,15,41,6.40
2021,01,13,15,42,4.80
2021,01,13,15,43,4.80
2021,01,13,15,44,6.40
2021,01,13,15,45,4.80
2021,01,13,15,46,6.40
2021,01,13,15,47,6.40
2021,01,13,15,48,4.80
2021,01,13,15,49,8.10
2021,01,13,15,50,9.60
2021,01,13,15,51,6.40
2021,01,13,15,52,8.10
2021,01,13,15,53,6.40
2021,01,13,15,54,9.60
2021,01,13,15,55,8.10
2021,01,13,15,56,6.40
2021,01,13,15,57,9.60
2021,01,13,15,58,14.50
2021,01,13,15,59,16.10
2021,01,13,16,00,6.40
2021,01,13,16,01,8.10
2021,01,13,16,02,14.50
2021,01,13,16,03,20.90
2021,01,13,16,04,11.30
2021,01,13,16,05,6.40
2021,01,13,16,06,8.10
2021,01,13,16,07,9.60
2021,01,13,16,08,8.10
2021,01,13,16,09,4.80
2021,01,13,16,10,6.40
2021,01,13,16,11,6.40
2021,01,13,16,12,8.10
2021,01,13,16,13,12.90
2021,01,13,16,14,8.10
2021,01,13,16,15,4.80
2021,01,13,16,16,8.10
2021,01,13,16,17,9.60
2021,01,13,16,18,3.20
2021,01,13,16,19,6.40
2021,01,13,16,20,4.80
2021,01,13,16,21,3.20
2021,01,13,16,22,6.40
2021,01,13,16,23,6.40
2021,01,13,16,24,4.80
2021,01,13,16,25,4.80
2021,01,13,16,26,3.20
2021,01,13,16,27,6.40
2021,01,13,16,28,8.10
2021,01,13,16,29,6.40
2021,01,13,16,30,8.10
2021,01,13,16,31,11.30
2021,01,13,16,32,8.10
2021,01,13,16,33,8.10
2021,01,13,16,34,8.10
2021,01,13,16,35,6.40
2021,01,13,16,36,6.40
2021,01,13,16,37,4.80
2021,01,13,16,38,6.40
2021,01,13,16,39,4.80
2021,01,13,16,40,6.40
2021,01,13,16,41,4.80
2021,01,13,16,42,4.80
2021,01,13,16,43,3.20
2021,01,13,16,44,4.80
2021,01,13,16,45,4.80
2021,01,13,16,46,8.10
2021,01,13,16,47,3.20
2021,01,13,16,48,4.80
2021,01,13,16,49,3.20
2021,01,13,16,50,4.80
2021,01,13,16,51,4.80
2021,01,13,16,52,1.60
2021,01,13,16,53,4.80
2021,01,13,16,54,4.80
2021,01,13,16,55,3.20
2021,01,13,16,56,3.20
2021,01,13,17,00,3.20
2021,01,13,17,01,4.80
2021,01,13,17,02,6.40
2021,01,13,17,03,4.80
2021,01,13,17,04,6.40
2021,01,13,17,05,4.80
2021,01,13,17,06,6.40
2021,01,13,17,07,4.80
2021,01,13,17,08,4.80
2021,01,13,17,09,4.80
2021,01,13,17,10,6.40
2021,01,13,17,11,4.80
2021,01,13,17,12,8.10
2021,01,13,17,13,6.40
2021,01,13,17,14,9.60
2021,01,13,17,15,8.10
2021,01,13,17,16,8.10
2021,01,13,17,17,4.80
2021,01,13,17,18,8.10
2021,01,13,17,19,9.60
2021,01,13,17,20,6.40
2021,01,13,17,21,6.40
2021,01,13,17,22,9.60
2021,01,13,17,23,11.30
2021,01,13,17,24,6.40
2021,01,13,17,25,4.80
2021,01,13,17,26,6.40
2021,01,13,17,27,9.60
2021,01,13,17,28,14.50
2021,01,13,17,29,8.10
2021,01,13,17,30,9.60